• MPC Preparation (Info)

  • MPEC 2019-V40 : 2019 VW

    The following Minor Planet Electronic Circular may be linked-to from your own Web pages, but must not otherwise be redistributed electronically.

    A form allowing access to any MPEC is at the bottom of this page.


    Read MPEC 2019-V39 Read MPEC 2019-V41


    M.P.E.C. 2019-V40                              Issued 2019 November 4, 04:16 UT
    
         The Minor Planet Electronic Circulars contain information on unusual
             minor planets and routine data on comets.  They are published
        on behalf of Division F of the International Astronomical Union by the
              Minor Planet Center, Smithsonian Astrophysical Observatory,
                              Cambridge, MA 02138, U.S.A.
    
                 Prepared using the Tamkin Foundation Computer Network
    
                                  MPC@CFA.HARVARD.EDU
                URL https://www.minorplanetcenter.net/    ISSN 1523-6714
    
                                     2019 VW                                 
    
    
    Observations:
         K19V00W  C2019 11 02.42615604 23 46.952+20 41 34.99         18.57GVEV040F51
         K19V00W  C2019 11 02.43834104 23 25.512+20 36 40.54         18.47GVEV040F51
         K19V00W* C2019 11 03.40478 03 59 40.64 +13 56 26.4          18.1 GVEV040703
         K19V00W  C2019 11 03.40843 03 59 34.85 +13 54 56.6          18.2 GVEV040703
         K19V00W  C2019 11 03.41574 03 59 23.29 +13 51 54.6          18.1 GVEV040703
         K19V00W  C2019 11 03.50887 03 57 00.48 +13 13 15.8          18.1 GVEV040703
         K19V00W  C2019 11 03.50922 03 56 59.98 +13 13 07.0          18.0 GVEV040703
         K19V00W  C2019 11 03.50956 03 56 59.43 +13 12 59.0          18.4 GVEV040703
         K19V00W  C2019 11 03.50991 03 56 58.87 +13 12 49.5          19.1 GVEV040703
         K19V00W KC2019 11 03.55359503 56 32.01 +13 07 32.4          18.1 GVEV040R57
         K19V00W KC2019 11 03.55582603 56 28.62 +13 06 37.9          18.2 GVEV040R57
         K19V00W KC2019 11 03.55805803 56 25.24 +13 05 43.5          17.9 GVEV040R57
         K19V00W KC2019 11 03.56032803 56 21.69 +13 04 49.0          18.3 GVEV040R57
         K19V00W KC2019 11 03.56261503 56 18.24 +13 03 52.9          18.3 GVEV040R57
         K19V00W KC2019 11 03.96148503 47 42.60 +10 10 30.3          18.4 GVEV040C95
         K19V00W KC2019 11 03.96431803 47 38.48 +10 09 23.0          18.1 GVEV040C95
         K19V00W KC2019 11 03.96715203 47 34.35 +10 08 17.2          18.5 GVEV040C95
         K19V00W KC2019 11 03.96997103 47 30.27 +10 07 10.5          18.3 GVEV040C95
         K19V00W KC2019 11 04.10998 03 44 06.86 +09 11 39.8          18.4 GVEV040204
         K19V00W KC2019 11 04.11379 03 44 01.50 +09 10 09.5                VEV040204
         K19V00W KC2019 11 04.11765 03 43 56.12 +09 08 37.8                VEV040204
    
    Observer details:
    204 Schiaparelli Observatory.  Observer L. Buzzi.  0.84-m f/3.5 reflector + CCD.
    703 Catalina Sky Survey.  Observer G. J. Leonard.  Measurers E. J. Christensen, 
       G. A. Farneth, D. C. Fuls, A. R. Gibbs, A. D. Grauer, H. Groeller, R. A. 
       Kowalski, S. M. Larson, G. J. Leonard, T. A. Pruyne, D. Rankin, R. L. Seaman,
        F. C. Shelly, K. W. Wierzchos.  0.68-m Schmidt + 10K CCD.
    C95 SATINO Remote Observatory, Haute Provence.  Observer J. Jahn.  0.60-m f/3.2 
       Newtonian reflector + CCD.
    F51 Pan-STARRS 1, Haleakala.  Observers J. Bulger, K. Chambers, T. Lowe, E. 
       Magnier, A. Schultz, M. Willman.  Measurers S. Chastel, M. Huber, Y. 
       Ramanjooloo, R. Wainscoat, R. Weryk.  1.8-m Ritchey-Chretien + CCD.
    R57 Aorangi Iti Observatory, Lake Tekapo.  Observers A. C. Gilmore, P. M. 
       Kilmartin.  Measurer P. M. Kilmartin.  0.35-m f/11 Schmidt-Cassegrain + CCD.
    
    Orbital elements:
    2019 VW                                                  Earth MOID = 0.0103 AU
    Epoch 2019 Apr. 27.0 TT = JDT 2458600.5                 Bell
    M 293.87477              (2000.0)            P               Q
    n   1.18939703     Peri.   15.75302     -0.56600253     +0.82235252
    a   0.8822361      Node   219.82489     -0.76583726     -0.55058102
    e   0.1464366      Incl.    5.20637     -0.30517933     -0.14351610
    P   0.83           H   26.7           G   0.15           U   6
    Residuals in seconds of arc
    191102 F51  0.0   0.0     191103 703  0.5-  0.3+    191103 C95  0.0   0.1-
    191102 F51  0.0   0.1-    191103 703  1.1-  0.5-    191103 C95  0.0   0.6-
    191103 703  0.4+  0.5+    191103 R57  0.6-  0.1+    191103 C95  0.0   0.4+
    191103 703  0.2+  1.0+    191103 R57  0.1-  0.2-    191103 C95  0.3+  0.2+
    191103 703  0.1+  0.0     191103 R57  0.6+  0.4-    191104 204  0.1+  0.0
    191103 703  0.0   0.2-    191103 R57  0.3-  0.2+    191104 204  0.1-  0.1+
    191103 703  0.2+  0.2-    191103 R57  0.5+  0.4-    191104 204  0.2+  0.1-
    
    Ephemeris:
    2019 VW                  a,e,i = 0.88, 0.15, 5                   q = 0.7530
    Date    TT    R. A. (2000) Decl.     Delta      r    Elong.  Phase     V
    2019 10 05    11 01 05.7 +49 00 59   0.06278 0.9682    57.7   119.1    25.4
    ...
    2019 10 20    09 31 25.3 +52 31 37   0.03285 0.9916    81.4    96.7    22.7
    ...
    2019 10 28    07 00 18.3 +47 07 47   0.01867 1.0005   110.7    68.3    20.5
    ...
    2019 11 03    04 09 20.2 +16 45 53   0.01453 1.0055   156.1    23.5    18.6
    2019 11 04    03 46 43.3 +10 01 07   0.01499 1.0062   161.6    18.1    18.5
    2019 11 05    03 26 42.0 +03 43 49   0.01578 1.0068   163.3    16.4    18.6
    ...
    2019 11 11    02 09 24.8 -19 40 49   0.02483 1.0096   140.9    38.2    20.2
    ...
    2019 11 19    01 26 01.8 -29 45 27   0.04116 1.0108   122.0    56.1    21.8
    ...
    2019 12 04    01 01 31.0 -33 51 36   0.07311 1.0057   103.8    72.1    23.6
    
    A. U. Tomatic                (C) Copyright 2019 MPC           M.P.E.C. 2019-V40
    


    Read MPEC 2019-V39 Read MPEC 2019-V41


    MPEC number:

    Enter an MPEC number in one of the following forms:

    • 1997-B01 (the full form)
    • J97B01 (the packed version of the full form)
    • B01 (the abbreviated form)